Location: Newark
(34.1333°N, 7.9667°W)
Time: 21:27:29
(UTC+00:00)

S-56A Canister/Altair - Visible Passes

Search period start: 13 June 2021 00:00
Search period end: 23 June 2021 00:00
Orbit: 632 x 2500 km, 38.9° (Epoch: 12 June)

Date Brightness Start Highest point End Pass type
(mag) Time Alt. Az. Time Alt. Az. Time Alt. Az.
16 Jun 8.4 04:33:47 10° SSW 04:37:41 30° SE 04:41:49 10° E visible
17 Jun 8.6 04:02:36 15° S 04:05:14 25° SE 04:08:57 10° E visible
18 Jun 8.8 03:31:39 18° SSE 03:32:47 20° SE 03:36:04 10° E visible
19 Jun 9.1 03:00:39 17° SE 03:00:39 17° SE 03:03:10 10° ESE visible
20 Jun 9.6 02:29:38 12° ESE 02:29:38 12° ESE 02:30:12 10° ESE visible
20 Jun 7.2 04:27:04 13° WSW 04:31:02 73° SSE 04:35:36 10° ENE visible
21 Jun 7.2 03:56:01 25° SW 03:58:33 62° SSE 04:02:58 10° ENE visible
22 Jun 7.4 03:24:55 41° SSW 03:26:05 52° SSE 03:30:23 10° ENE visible
